Temp
13 13 13 13 13 13 13 12 11 11 10 10 10 10 10 10 10 10 10 10 10 10 11 11 11 11 11 11 11 11 11 11 11 11 11 12 11 12 11 11 11 11 11 11 11 11 11 11 11 12 12 12 12 12 12 11 11 11 11 11 11 12 12
13 14 14 14 14 14 13 13 12 12 11 11 11 10 10 10 10 10 10 10 11 11 11 11 11 11 10 10 11 11 11 11 11 11 11 11 11 11 11 11 11 11 11 11 11 11 11 11 11 11 11 12 12 11 11 11 11 11 11 11 11 11 11
14 14 14 14 14 14 13 13 13 12 12 12 12 11 11 11 11 11 11 11 11 11 12 12 11 11 11 11 11 11 11 11 11 11 11 11 11 11 11 11 11 11 11 11 11 11 11 11 11 11 11 12 11 11 11 11 11 11 11 11 12 12 12
14 14 14 15 14 14 13 13 13 13 12 12 12 12 11 11 11 11 11 12 12 12 12 12 12 11 11 11 11 11 11 11 11 11 11 11 11 11 11 11 11 11 11 11 11 11 11 11 11 11 11 11 11 11 11 11 11 11 11 11 11 11 12
15 15 15 15 15 14 14 13 13 13 12 12 12 12 12 12 12 12 12 12 12 12 12 12 12 12 12 12 11 11 11 12 12 12 11 11 11 11 11 11 11 11 11 11 11 11 11 11 11 11 11 11 11 11 11 11 11 11 11 11 10 10 11
15 15 15 15 15 14 14 14 13 13 13 13 12 12 12 12 12 12 12 12 12 12 12 12 12 12 12 12 12 12 12 12 12 12 11 11 11 11 11 11 11 11 11 11 11 11 11 12 12 12 11 11 11 11 11 11 11 11 10 10 10 10 10
15 15 15 15 14 14 14 14 14 13 13 13 12 12 12 12 12 12 12 12 12 12 12 12 12 12 12 12 12 12 12 12 12 12 11 11 11 11 11 11 11 11 11 11 11 11 11 12 12 12 12 11 11 11 11 11 10 10 10 10 10 10 10
14 15 15 14 14 14 14 14 13 13 13 13 12 12 12 12 12 12 12 12 12 12 12 12 12 12 11 11 11 12 12 11 11 11 11 11 11 11 11 11 11 11 11 11 11 11 11 11 11 11 11 11 11 11 10 10 10 10 10 10 10 10 10
14 14 14 14 14 14 14 13 13 13 13 13 13 12 12 12 12 12 12 12 12 12 12 12 12 12 11 11 11 11 11 11 11 11 11 11 11 11 11 11 11 11 11 11 11 11 11 11 11 11 11 11 11 11 11 11 11 11 10 10 10 10 11
14 14 14 14 14 14 13 13 13 13 13 13 13 12 12 12 12 12 12 12 12 12 12 12 12 12 12 12 12 11 11 11 11 11 11 11 11 11 11 11 11 11 11 11 11 11 11 11 11 11 11 11 11 11 11 11 11 11 11 11 11 11 11
13 14 14 14 14 14 13 13 13 13 13 12 12 12 12 12 12 12 12 12 12 12 12 12 12 12 12 12 12 12 12 11 11 11 11 11 11 11 11 11 11 11 11 11 11 11 11 11 11 11 11 11 11 11 11 11 11 11 11 11 11 11 11
13 13 13 13 13 13 13 13 12 12 12 12 12 12 12 12 12 12 12 12 12 12 12 12 12 12 12 12 12 12 12 11 11 11 11 11 11 11 11 11 11 11 10 10 10 10 10 10 10 10 11 10 10 11 10 10 10 10 10 10 10 10 10
12 12 13 13 13 13 13 13 12 12 12 12 12 12 12 12 12 12 12 12 12 12 12 12 12 12 12 12 12 12 11 11 11 11 11 11 11 11 11 11 11 10 10 10 10 10 10 10 10 10 10 10 10 10 10 10 10 10 10 10 10 10 10
12 12 12 13 13 12 12 12 12 12 12 12 12 12 12 12 12 11 11 11 11 11 11 12 12 12 12 12 11 11 11 11 11 11 11 11 11 11 11 10 10 10 10 10 10 10 10 10 10 10 10 10 10 10 10 10 10 10 10 9 9 9 10
12 12 12 12 12 12 12 12 12 12 11 11 11 11 11 11 11 11 11 11 11 11 11 11 11 11 11 11 11 11 11 11 11 11 11 11 11 11 11 10 10 10 10 10 10 10 10 10 10 9 9 9 9 9 10 10 10 10 10 10 9 9 9
11 12 12 12 12 12 12 12 12 11 11 11 11 11 11 11 11 11 11 11 11 11 11 11 11 11 11 11 11 11 10 10 10 10 10 10 10 10 10 10 10 10 10 10 10 10 9 9 9 9 9 9 9 9 9 9 9 9 9 9 9 9 9
11 12 12 12 12 12 12 12 11 11 11 11 11 11 11 11 11 11 11 10 10 11 11 11 11 11 11 11 10 10 10 10 10 10 10 10 10 10 10 10 10 10 10 10 10 9 9 9 9 9 9 9 9 9 9 9 9 9 9 9 9 9 9
11 12 11 12 12 11 11 11 11 11 11 11 11 11 11 11 11 10 10 10 10 10 10 10 10 10 10 10 10 10 10 10 10 10 10 10 10 10 10 10 10 10 10 10 9 9 9 9 9 9 9 9 9 9 9 8 8 8 8 8 8 8 8
11 11 11 12 12 11 11 11 11 11 11 11 11 11 11 11 10 10 10 10 10 9 10 10 10 10 10 10 10 10 10 10 10 10 10 10 10 10 10 9 9 10 10 10 9 9 9 9 9 9 9 9 9 8 8 8 8 8 8 8 8 8 8
11 11 11 12 11 11 11 11 11 11 11 11 11 11 11 10 10 10 10 10 9 9 9 10 10 10 10 10 10 10 10 10 10 10 10 10 9 9 9 9 9 9 9 9 10 10 9 9 9 9 9 9 8 8 8 8 8 8 7 7 7 7 7
11 11 11 11 11 11 11 11 11 11 10 10 11 10 10 10 10 10 10 10 9 9 9 9 10 10 10 10 10 10 9 9 9 9 9 9 9 9 9 9 9 9 9 9 9 9 9 9 9 8 8 8 8 8 8 7 7 7 7 7 7 7 7
10 10 10 11 10 10 10 10 10 10 10 10 10 10 10 10 10 10 10 10 9 9 9 9 10 10 10 10 9 9 9 9 9 9 9 9 9 9 9 9 9 9 9 9 9 9 9 8 8 8 7 7 7 7 7 7 7 7 7 7 7 7 7
10 10 10 10 10 9 9 9 9 9 9 10 10 10 10 9 9 10 9 9 9 9 9 9 9 9 9 9 9 9 9 9 9 9 9 9 9 9 9 9 9 8 8 8 8 8 8 8 8 8 7 7 7 6 6 7 7 7 7 7 6 6 7
10 10 10 9 9 9 9 9 9 9 9 9 9 9 9 9 9 9 9 9 9 9 9 9 9 9 9 9 9 9 9 9 9 9 9 9 9 9 9 9 9 8 8 8 8 8 8 8 8 7 7 7 6 6 6 7 7 7 7 6 6 6 6
10 10 10 10 10 10 10 10 10 10 10 10 10 10 9 9 9 9 9 9 9 9 9 9 9 9 9 9 9 9 9 9 9 9 8 8 8 8 8 8 8 8 8 8 8 8 7 7 7 7 7 7 7 6 6 6 7 7 6 6 6 6 5
10 10 10 10 10 10 10 10 10 10 10 10 10 10 10 10 10 10 10 9 9 9 9 9 9 9 9 9 9 9 8 9 9 9 8 8 8 8 8 8 8 8 8 7 7 7 7 7 7 7 7 7 6 6 6 6 6 6 6 6 5 5 5
10 10 10 10 10 10 10 10 9 9 9 9 9 9 9 9 9 9 9 9 9 9 9 9 8 8 8 8 8 8 8 8 8 8 8 8 8 8 8 8 8 8 7 7 7 7 7 7 6 6 6 6 6 6 6 6 6 6 5 5 5 5 4
9 9 9 9 9 9 9 9 9 9 9 9 9 9 9 9 9 9 9 9 9 9 9 8 8 8 8 8 8 8 8 8 8 8 8 8 8 8 8 8 8 7 7 7 7 7 6 6 6 6 6 6 5 5 5 5 5 5 4 4 4 4 4
9 9 9 9 9 9 9 9 9 9 9 9 9 9 9 9 9 9 9 9 8 8 8 8 8 8 8 7 7 7 7 8 8 8 8 8 8 7 7 7 7 7 7 7 6 6 6 6 6 6 5 5 5 5 5 5 4 4 4 4 4 3 3
9 9 9 9 9 9 9 9 9 9 9 9 9 9 9 9 9 9 8 8 8 8 8 8 7 7 7 7 7 7 7 7 7 7 7 7 7 7 7 6 6 6 6 6 6 6 6 6 5 5 5 5 5 5 4 4 4 3 3 3 3 3 3
9 9 9 9 9 9 8 8 8 8 8 8 8 8 8 8 8 8 8 8 8 8 7 7 7 7 7 7 7 7 7 7 7 7 6 6 6 6 6 6 6 6 6 6 6 5 5 5 5 5 5 4 4 4 4 4 3 3 3 3 3 3 2
8 8 8 8 8 8 8 8 8 8 8 8 8 8 8 8 8 8 8 8 8 7 7 7 7 6 6 6 6 6 6 6 6 6 6 5 5 5 5 5 5 5 5 5 5 5 5 5 5 4 4 4 4 4 4 3 3 3 3 3 2 2 2
8 8 8 8 8 8 8 8 8 8 8 8 7 7 7 7 7 7 7 7 7 7 7 6 6 6 6 6 6 5 5 5 5 5 5 5 5 5 5 5 5 5 5 4 4 4 4 4 4 4 4 4 4 3 3 3 2 2 2 2 2 2 1
8 8 8 8 7 7 7 7 7 7 7 7 7 7 7 7 7 7 7 6 6 6 6 6 6 6 6 5 5 5 4 4 4 4 4 4 5 5 4 4 4 4 4 4 4 4 4 4 4 3 3 3 3 3 3 2 2 2 1 1 1 1 1
7 7 7 7 7 7 7 7 7 7 7 6 6 6 6 6 6 6 6 6 6 5 5 5 5 5 5 5 5 4 4 4 4 4 4 4 4 4 4 4 4 4 4 3 4 4 4 3 3 3 3 3 3 2 2 2 2 1 1 1 1 0 0
7 7 7 7 7 7 7 7 6 6 6 6 6 6 6 6 6 6 6 5 5 5 5 5 5 5 5 5 4 4 4 4 4 4 3 3 3 3 3 3 3 3 3 3 3 3 3 3 3 3 3 2 2 2 2 1 1 1 0 -0 -0 -1 -1
7 7 7 7 7 6 6 6 6 6 6 6 6 6 6 6 5 5 5 5 5 5 5 5 4 4 4 4 4 4 3 3 3 3 3 2 2 2 2 2 3 3 3 3 3 3 3 3 2 2 2 2 1 1 1 0 -0 -0 -1 -1 -2 -2 -2
Height
1527 1528 1528 1528 1529 1529 1530 1530 1531 1532 1532 1532 1533 1533 1533 1533 1532 1532 1532 1533 1533 1534 1535 1534 1534 1534 1535 1535 1534 1534 1534 1533 1533 1533 1532 1532 1532 1532 1533 1533 1534 1534 1535 1535 1536 1536 1537 1538 1538 1539 1539 1539 1540 1540 1540 1540 1541 1541 1541 1541 1541 1541 1542
1528 1528 1528 1529 1530 1530 1531 1531 1532 1532 1533 1533 1534 1534 1533 1533 1532 1532 1532 1532 1533 1534 1534 1534 1534 1534 1534 1535 1535 1535 1534 1534 1534 1533 1533 1533 1533 1533 1533 1533 1534 1534 1535 1535 1535 1536 1537 1537 1538 1539 1539 1540 1540 1540 1540 1540 1540 1540 1541 1541 1540 1539 1541
1528 1528 1529 1530 1531 1531 1531 1531 1532 1533 1533 1534 1534 1534 1534 1533 1533 1532 1532 1532 1533 1534 1534 1534 1534 1534 1534 1535 1535 1535 1534 1534 1534 1534 1534 1534 1534 1534 1534 1534 1534 1535 1535 1535 1535 1536 1536 1537 1538 1539 1539 1540 1540 1540 1540 1540 1540 1540 1541 1541 1539 1539 1540
1528 1528 1529 1530 1531 1532 1532 1532 1532 1533 1533 1534 1534 1534 1534 1534 1533 1533 1533 1533 1534 1534 1535 1534 1534 1535 1535 1535 1535 1535 1534 1534 1534 1534 1534 1534 1534 1535 1535 1535 1535 1535 1535 1536 1536 1536 1536 1537 1538 1538 1539 1540 1540 1540 1540 1540 1540 1541 1541 1540 1539 1539 1540
1528 1529 1530 1531 1532 1532 1533 1533 1533 1534 1534 1534 1535 1535 1534 1534 1533 1533 1534 1534 1535 1535 1535 1535 1535 1535 1535 1535 1535 1535 1535 1535 1534 1534 1534 1534 1535 1535 1535 1535 1536 1536 1536 1536 1536 1536 1536 1537 1537 1538 1538 1539 1540 1540 1540 1540 1540 1541 1541 1540 1540 1540 1540
1528 1529 1531 1532 1532 1533 1534 1534 1534 1534 1535 1535 1535 1535 1534 1534 1534 1534 1534 1535 1535 1536 1536 1536 1536 1536 1536 1536 1536 1536 1536 1535 1535 1535 1535 1535 1535 1536 1536 1536 1536 1536 1536 1536 1537 1536 1536 1537 1537 1537 1538 1539 1540 1540 1541 1541 1541 1541 1541 1541 1541 1541 1541
1528 1529 1530 1532 1533 1534 1534 1535 1535 1535 1536 1536 1535 1535 1534 1534 1534 1534 1535 1535 1536 1536 1537 1537 1537 1537 1537 1537 1537 1537 1536 1536 1536 1536 1536 1536 1536 1536 1536 1536 1536 1536 1537 1537 1537 1537 1537 1537 1537 1537 1537 1538 1539 1540 1541 1541 1541 1542 1542 1542 1542 1542 1542
1527 1529 1530 1531 1532 1534 1535 1536 1536 1536 1536 1537 1536 1535 1534 1534 1534 1534 1535 1536 1537 1537 1537 1538 1538 1538 1538 1538 1538 1538 1537 1537 1537 1537 1537 1537 1537 1537 1537 1537 1537 1537 1537 1537 1537 1537 1537 1537 1537 1537 1537 1538 1539 1540 1541 1541 1541 1542 1542 1542 1543 1542 1542
1527 1528 1529 1530 1532 1533 1535 1536 1537 1537 1537 1537 1536 1536 1535 1534 1534 1535 1536 1537 1537 1538 1538 1539 1539 1539 1539 1539 1539 1539 1539 1538 1538 1538 1538 1538 1538 1538 1538 1538 1538 1538 1538 1538 1538 1538 1538 1538 1538 1538 1538 1538 1539 1540 1541 1541 1541 1542 1542 1542 1542 1542 1542
1527 1528 1528 1530 1531 1533 1534 1536 1537 1537 1537 1537 1536 1536 1535 1535 1535 1535 1536 1537 1538 1539 1539 1539 1540 1540 1540 1541 1540 1540 1540 1540 1540 1539 1539 1539 1539 1539 1539 1539 1539 1539 1539 1539 1539 1539 1539 1539 1539 1539 1539 1539 1539 1540 1540 1541 1541 1542 1542 1542 1542 1542 1542
1526 1527 1528 1530 1531 1532 1534 1535 1536 1537 1537 1537 1536 1536 1536 1535 1535 1536 1537 1538 1538 1539 1539 1540 1540 1541 1541 1542 1542 1542 1541 1541 1541 1540 1540 1540 1540 1540 1540 1540 1540 1540 1540 1540 1540 1540 1540 1540 1540 1540 1540 1540 1540 1540 1541 1541 1541 1542 1542 1541 1541 1541 1541
1525 1527 1528 1530 1531 1532 1534 1535 1536 1537 1537 1537 1537 1536 1536 1536 1536 1537 1537 1538 1539 1539 1540 1540 1540 1541 1541 1542 1542 1542 1542 1542 1542 1541 1541 1541 1541 1541 1541 1541 1541 1541 1541 1541 1541 1541 1541 1541 1541 1541 1541 1541 1541 1541 1541 1541 1541 1541 1541 1541 1541 1540 1540
1525 1526 1528 1529 1531 1532 1534 1535 1536 1537 1537 1537 1537 1537 1537 1537 1537 1538 1538 1539 1539 1540 1540 1540 1540 1541 1541 1542 1542 1543 1543 1543 1542 1542 1542 1542 1542 1542 1542 1542 1542 1542 1542 1542 1542 1542 1542 1542 1541 1541 1541 1541 1541 1541 1541 1541 1541 1541 1541 1541 1540 1540 1539
1525 1526 1527 1529 1530 1531 1533 1534 1535 1536 1537 1537 1537 1537 1537 1537 1538 1539 1539 1540 1540 1540 1540 1540 1540 1540 1541 1541 1542 1542 1543 1543 1543 1542 1542 1542 1542 1542 1542 1542 1542 1542 1542 1542 1542 1542 1542 1542 1542 1542 1541 1541 1541 1541 1541 1541 1541 1541 1541 1541 1540 1539 1539
1525 1526 1526 1528 1529 1531 1532 1533 1534 1534 1535 1536 1536 1537 1537 1538 1538 1539 1540 1540 1541 1541 1541 1541 1541 1541 1541 1541 1542 1542 1542 1542 1542 1542 1542 1542 1542 1542 1541 1541 1542 1542 1542 1542 1542 1542 1542 1542 1542 1541 1541 1541 1541 1541 1541 1541 1540 1540 1540 1540 1540 1539 1538
1526 1526 1526 1527 1529 1530 1531 1533 1533 1533 1534 1534 1535 1536 1536 1537 1538 1539 1539 1540 1540 1541 1541 1541 1541 1541 1541 1541 1541 1542 1542 1542 1542 1542 1542 1542 1542 1542 1541 1541 1541 1541 1541 1541 1542 1541 1541 1541 1541 1541 1541 1541 1540 1540 1540 1540 1540 1539 1539 1539 1539 1538 1537
1523 1524 1524 1525 1527 1529 1530 1531 1532 1533 1533 1534 1534 1535 1535 1536 1537 1538 1539 1539 1540 1540 1540 1541 1541 1541 1541 1540 1541 1541 1541 1541 1542 1542 1542 1542 1542 1542 1541 1541 1541 1541 1541 1541 1541 1541 1541 1541 1541 1541 1541 1540 1540 1540 1540 1539 1539 1538 1538 1537 1537 1537 1536
1521 1522 1523 1525 1526 1527 1528 1529 1530 1531 1532 1533 1533 1534 1535 1535 1535 1536 1537 1538 1538 1539 1539 1540 1540 1540 1540 1540 1540 1540 1540 1540 1541 1541 1541 1541 1541 1541 1541 1541 1541 1541 1541 1540 1541 1541 1541 1540 1540 1540 1540 1540 1540 1540 1539 1539 1539 1538 1537 1536 1536 1536 1535
1521 1522 1524 1525 1525 1526 1527 1527 1528 1530 1531 1531 1532 1532 1533 1534 1534 1535 1535 1536 1537 1537 1537 1538 1538 1538 1539 1539 1538 1539 1539 1539 1539 1539 1540 1540 1540 1540 1540 1540 1540 1540 1540 1540 1540 1540 1540 1540 1540 1540 1539 1539 1539 1539 1539 1538 1538 1537 1537 1536 1535 1534 1534
1520 1522 1524 1524 1525 1526 1526 1526 1527 1528 1529 1530 1530 1531 1531 1532 1533 1533 1534 1534 1535 1535 1535 1535 1536 1536 1536 1536 1536 1536 1537 1537 1538 1538 1538 1538 1539 1539 1539 1539 1539 1539 1539 1540 1540 1540 1540 1539 1539 1539 1539 1538 1538 1538 1538 1537 1537 1536 1535 1535 1534 1533 1532
1519 1521 1522 1523 1524 1525 1525 1525 1526 1526 1527 1528 1529 1529 1529 1530 1531 1532 1532 1532 1533 1533 1533 1533 1533 1534 1534 1534 1534 1534 1535 1535 1536 1536 1536 1537 1537 1537 1537 1537 1537 1537 1538 1538 1538 1538 1538 1538 1538 1538 1537 1537 1537 1536 1536 1535 1535 1534 1533 1533 1532 1531 1531
1519 1521 1522 1522 1523 1524 1524 1524 1525 1525 1526 1527 1527 1527 1527 1528 1528 1528 1529 1529 1530 1531 1531 1531 1531 1531 1531 1532 1532 1532 1532 1532 1533 1534 1534 1535 1535 1535 1535 1535 1535 1535 1536 1536 1537 1537 1537 1536 1536 1536 1536 1535 1535 1534 1534 1533 1533 1532 1532 1531 1530 1529 1528
1520 1522 1522 1522 1523 1524 1523 1523 1523 1524 1525 1525 1524 1524 1525 1527 1527 1527 1528 1528 1528 1528 1528 1528 1528 1528 1528 1529 1529 1529 1529 1530 1531 1532 1532 1532 1532 1533 1533 1533 1533 1533 1534 1534 1535 1535 1535 1535 1534 1534 1534 1534 1533 1533 1532 1531 1531 1530 1530 1529 1528 1527 1526
1520 1522 1522 1523 1523 1523 1523 1522 1522 1522 1522 1522 1522 1523 1524 1526 1527 1527 1527 1527 1526 1526 1526 1526 1526 1526 1526 1526 1526 1527 1527 1528 1528 1529 1529 1529 1530 1530 1530 1530 1531 1531 1531 1532 1532 1533 1533 1533 1532 1532 1532 1532 1531 1531 1530 1529 1528 1528 1528 1527 1526 1524 1523
1520 1520 1521 1521 1522 1522 1522 1521 1521 1522 1521 1522 1522 1523 1524 1525 1526 1526 1526 1526 1525 1525 1524 1525 1525 1525 1525 1525 1525 1525 1526 1526 1526 1526 1526 1526 1526 1527 1527 1527 1528 1528 1529 1529 1530 1530 1530 1531 1531 1530 1530 1530 1529 1529 1528 1527 1527 1526 1525 1524 1523 1522 1520
1518 1518 1519 1519 1520 1520 1520 1520 1521 1521 1521 1522 1522 1523 1524 1524 1524 1525 1525 1524 1524 1524 1524 1524 1524 1524 1524 1524 1524 1524 1524 1525 1524 1524 1524 1524 1524 1524 1524 1524 1525 1525 1526 1527 1528 1528 1529 1529 1529 1528 1528 1528 1528 1527 1526 1526 1525 1524 1523 1522 1521 1520 1518
1516 1517 1517 1518 1518 1518 1519 1519 1519 1520 1520 1521 1521 1522 1522 1523 1523 1523 1523 1523 1523 1522 1522 1523 1523 1523 1523 1523 1523 1523 1523 1523 1523 1522 1522 1522 1522 1522 1522 1522 1522 1523 1524 1525 1526 1526 1526 1526 1526 1526 1526 1526 1525 1525 1525 1524 1523 1522 1521 1519 1518 1517 1515
1515 1516 1516 1517 1517 1517 1517 1518 1518 1519 1519 1519 1520 1520 1521 1521 1521 1521 1521 1521 1521 1521 1521 1521 1521 1521 1521 1521 1521 1521 1521 1521 1520 1520 1520 1519 1519 1519 1519 1519 1520 1521 1522 1523 1523 1524 1524 1524 1524 1524 1524 1524 1524 1523 1522 1522 1521 1519 1518 1517 1515 1514 1513
1514 1515 1515 1516 1516 1516 1516 1517 1517 1518 1518 1518 1519 1519 1519 1519 1519 1519 1519 1519 1519 1519 1519 1519 1519 1519 1519 1519 1519 1519 1519 1518 1518 1518 1517 1517 1517 1517 1517 1517 1518 1519 1520 1521 1522 1522 1522 1522 1522 1522 1522 1522 1522 1521 1520 1519 1518 1517 1515 1514 1512 1511 1510
1513 1514 1514 1515 1515 1515 1516 1516 1516 1516 1517 1517 1517 1518 1518 1518 1518 1518 1518 1518 1517 1517 1517 1517 1518 1518 1518 1518 1517 1517 1517 1516 1516 1516 1516 1516 1516 1516 1516 1517 1518 1519 1519 1520 1520 1520 1520 1520 1520 1520 1520 1520 1520 1519 1518 1516 1515 1514 1512 1511 1509 1508 1506
1512 1512 1513 1514 1514 1514 1515 1515 1515 1515 1516 1516 1516 1516 1516 1516 1516 1516 1516 1516 1516 1516 1516 1516 1516 1516 1516 1516 1516 1515 1515 1515 1514 1514 1514 1514 1515 1515 1516 1516 1517 1518 1518 1518 1519 1519 1519 1519 1519 1518 1518 1518 1517 1516 1515 1514 1513 1511 1510 1508 1507 1505 1504
1511 1511 1512 1512 1513 1513 1513 1514 1514 1514 1514 1515 1515 1515 1515 1515 1515 1515 1515 1515 1515 1514 1514 1514 1514 1514 1514 1514 1514 1514 1513 1513 1513 1513 1514 1514 1514 1515 1515 1516 1516 1517 1517 1517 1517 1517 1517 1517 1517 1516 1516 1515 1514 1513 1512 1511 1510 1508 1507 1505 1504 1502 1501
1510 1510 1510 1511 1511 1512 1512 1512 1513 1513 1513 1513 1513 1514 1514 1514 1514 1514 1514 1514 1513 1513 1513 1513 1513 1512 1512 1512 1512 1512 1512 1512 1513 1513 1513 1513 1514 1514 1514 1515 1515 1515 1515 1516 1515 1515 1515 1515 1515 1514 1513 1513 1512 1510 1509 1508 1506 1504 1503 1501 1500 1498 1497
1508 1508 1509 1510 1510 1511 1511 1511 1511 1512 1512 1512 1512 1512 1513 1513 1513 1513 1513 1512 1512 1512 1512 1512 1511 1511 1511 1511 1511 1511 1511 1511 1511 1512 1512 1513 1513 1513 1513 1513 1513 1513 1513 1513 1514 1513 1513 1513 1512 1512 1511 1510 1509 1507 1506 1504 1502 1501 1499 1497 1496 1495 1493
1506 1507 1508 1508 1509 1509 1510 1510 1510 1510 1510 1510 1511 1511 1511 1511 1511 1512 1511 1511 1511 1511 1511 1511 1510 1510 1510 1510 1510 1510 1510 1510 1510 1510 1511 1511 1511 1512 1512 1511 1511 1511 1511 1511 1511 1511 1510 1510 1509 1509 1508 1507 1505 1504 1502 1501 1499 1498 1496 1495 1493 1492 1490
1504 1505 1506 1506 1507 1507 1508 1508 1508 1508 1508 1509 1509 1509 1509 1510 1510 1510 1510 1510 1510 1510 1510 1509 1509 1509 1509 1509 1509 1509 1509 1509 1509 1509 1509 1509 1509 1509 1510 1509 1509 1509 1509 1509 1509 1508 1508 1507 1507 1506 1505 1504 1502 1501 1500 1498 1497 1495 1493 1492 1490 1488 1487
1502 1503 1504 1504 1505 1505 1506 1506 1506 1506 1507 1507 1507 1507 1507 1508 1508 1508 1508 1508 1508 1508 1508 1508 1508 1508 1508 1508 1508 1508 1508 1508 1507 1507 1507 1507 1507 1507 1507 1508 1508 1508 1508 1507 1507 1506 1506 1505 1504 1503 1502 1501 1500 1498 1497 1496 1494 1492 1490 1489 1487 1486 1484
Wind_Speed
7 7 7 7 6 6 5 5 6 7 7 7 7 6 5 5 4 3 2 2 2 3 4 5 6 5 3 3 3 2 2 3 3 2 1 2 3 4 6 7 7 7 6 5 4 5 4 5 4 3 2 1 1 1 1 5 8 9 11 12 13 14 17
8 8 7 7 7 6 5 5 6 6 7 7 7 7 7 5 4 3 1 1 1 1 2 3 3 2 3 2 1 1 1 2 3 4 3 3 3 3 5 6 6 6 6 6 5 4 4 4 5 5 4 3 3 3 3 4 6 7 8 8 9 11 13
10 10 10 9 7 6 6 6 6 5 5 5 5 5 5 4 2 1 3 3 3 3 5 6 5 4 3 2 2 2 2 1 2 2 2 3 4 3 3 2 1 1 2 3 2 2 2 3 4 5 6 5 5 5 3 3 3 4 5 4 4 5 7
12 13 12 10 8 7 7 6 6 6 5 4 4 4 4 3 4 5 6 5 5 6 7 8 9 8 6 5 5 4 4 4 3 2 2 3 3 2 1 1 1 1 1 1 1 0 1 1 2 4 5 5 5 5 2 0 0 1 2 1 1 2 2
13 14 12 9 8 7 7 8 8 7 7 6 6 6 7 6 7 7 7 6 6 6 6 7 7 8 8 7 7 6 5 5 5 5 4 3 2 1 1 1 1 1 1 2 2 2 2 1 2 3 3 4 4 3 3 2 3 3 3 3 3 3 2
14 15 12 9 8 8 8 8 8 8 8 8 8 8 9 9 8 7 6 5 5 5 5 5 6 7 8 7 7 6 6 6 6 6 5 4 3 3 3 3 3 3 2 2 3 4 3 2 1 2 2 4 4 4 3 3 5 7 7 7 7 6 4
16 17 13 11 9 9 9 9 9 9 9 8 9 9 9 9 9 8 6 5 6 7 6 6 7 7 8 8 7 7 6 7 7 6 5 5 4 4 4 4 4 4 4 3 4 5 4 4 3 2 1 2 4 5 5 4 5 7 8 8 8 6 4
18 17 15 13 12 11 11 11 11 10 10 9 9 9 9 9 9 9 9 8 8 8 8 7 7 8 8 8 8 8 8 8 8 7 6 5 5 5 4 4 4 4 4 4 5 5 5 6 5 4 2 2 5 7 7 6 6 6 7 7 6 5 4
19 18 17 15 14 14 13 12 12 11 11 11 10 10 9 9 9 9 10 9 9 8 8 7 7 7 7 7 7 8 8 9 9 8 7 7 7 6 4 4 5 6 5 5 5 5 6 6 6 5 4 4 6 8 8 6 5 5 5 4 3 3 3
19 18 18 17 16 16 15 13 12 12 12 11 10 9 9 8 8 7 7 7 7 7 6 6 5 5 5 5 5 6 7 8 8 8 8 8 7 7 6 6 6 6 6 6 5 5 6 6 6 7 7 7 6 7 7 6 5 5 3 2 1 0 2
18 16 16 17 17 16 16 15 14 13 11 10 9 8 7 7 6 5 4 3 3 4 4 4 3 3 3 2 2 3 4 4 6 6 7 7 7 7 6 5 6 6 5 5 5 5 6 6 7 7 8 9 8 7 6 5 4 4 4 3 1 1 2
18 14 14 16 17 17 17 16 14 12 10 9 9 8 7 6 5 4 4 3 2 2 2 2 2 2 1 1 1 1 0 1 1 3 4 4 4 5 5 4 5 5 5 4 4 5 5 6 7 7 8 8 8 8 8 6 5 5 5 6 5 4 4
20 14 13 15 16 16 16 15 14 11 9 7 6 5 5 4 4 4 4 4 4 4 3 3 2 2 3 2 2 2 2 2 2 2 2 2 2 3 3 3 2 4 4 4 3 4 4 4 5 5 6 6 7 8 7 7 7 6 6 7 7 6 6
21 15 13 14 14 14 14 14 12 9 7 6 5 5 4 3 3 3 4 4 4 5 5 5 4 4 4 3 3 3 4 4 4 4 4 3 3 3 2 2 2 1 2 2 2 2 2 3 3 4 4 5 6 6 6 7 6 5 5 7 8 7 8
21 16 15 15 13 14 14 13 11 10 9 8 8 7 6 6 6 6 7 6 6 6 6 6 5 5 4 5 4 4 4 4 5 5 5 5 5 5 4 3 3 3 3 2 1 1 1 2 2 3 4 5 6 7 7 8 9 8 7 7 8 9 11
18 17 18 16 14 15 14 13 13 12 12 11 10 9 9 9 10 10 10 9 9 9 8 8 7 7 6 5 6 5 5 5 5 5 4 4 5 5 5 5 5 5 5 5 3 2 2 2 3 4 5 5 7 8 10 11 11 12 12 11 11 13 14
19 20 21 18 17 17 16 15 15 14 14 14 12 12 12 13 15 15 13 13 13 12 11 11 11 10 8 7 7 7 7 8 7 6 5 4 5 5 5 5 6 6 7 7 5 4 3 3 3 4 5 6 7 9 11 12 13 13 14 15 14 15 16
21 23 21 20 19 19 17 17 16 16 17 17 16 17 17 19 20 21 19 17 17 16 15 15 14 13 12 11 10 10 9 9 10 9 9 8 7 7 6 6 6 6 7 7 6 5 4 3 3 4 6 7 9 11 13 14 14 15 15 16 16 16 16
23 22 20 19 20 20 19 18 18 20 21 21 21 21 21 22 22 23 23 22 22 22 19 18 18 17 16 15 15 14 14 13 13 13 13 12 11 10 9 8 8 7 6 6 6 6 5 5 5 6 7 8 10 12 15 17 18 18 17 17 17 17 18
22 21 19 19 19 20 20 21 22 22 23 24 24 23 23 23 22 22 23 23 25 24 22 20 21 20 19 19 19 18 18 18 17 17 16 16 15 14 13 12 11 10 8 6 6 7 7 7 8 8 8 8 10 12 15 18 20 21 20 19 19 19 20
19 18 18 20 21 21 22 23 23 23 24 25 24 24 24 23 22 23 23 24 24 22 21 21 22 22 22 22 22 21 20 20 20 20 20 19 18 17 16 15 15 14 12 10 9 9 9 10 11 10 9 8 9 11 14 17 20 22 21 21 21 22 22
17 17 18 19 20 21 21 22 22 23 24 23 23 23 23 22 22 24 24 24 23 21 22 23 24 24 25 25 25 25 24 23 22 21 21 21 20 20 19 18 18 18 17 15 13 12 13 14 14 12 11 10 10 11 13 16 19 22 24 23 23 24 25
11 11 10 10 10 11 12 13 14 15 15 14 14 15 15 15 16 18 18 17 17 18 19 20 21 21 21 21 22 23 23 22 21 20 20 20 21 22 21 21 20 20 20 19 17 16 16 17 17 16 14 13 12 13 15 18 20 24 26 26 25 26 27
10 9 8 7 7 6 6 7 7 7 6 6 7 7 8 8 9 10 10 10 9 9 10 12 13 14 15 17 19 20 21 21 20 19 19 20 21 20 21 22 22 22 23 22 20 20 19 19 19 18 17 16 15 15 17 20 24 26 28 27 26 27 29
8 7 7 7 6 6 6 6 6 5 5 5 5 5 5 6 7 8 9 10 8 7 7 8 9 10 10 13 16 17 18 19 19 19 20 20 20 20 21 21 22 23 24 24 23 22 21 21 21 20 19 19 19 19 19 21 25 29 29 27 27 28 29
5 4 4 5 4 4 4 4 5 5 5 5 6 6 7 7 8 9 9 10 10 10 9 8 9 9 8 9 11 12 12 13 15 16 16 16 17 19 20 21 21 22 24 24 23 22 23 22 22 21 21 21 20 20 20 22 26 29 29 28 28 29 29
4 4 5 5 5 5 5 5 5 6 6 7 8 9 9 10 11 11 11 11 11 11 11 10 9 9 9 9 10 10 10 10 11 12 13 13 14 14 15 17 18 20 23 25 24 24 24 24 23 22 22 21 20 21 22 24 26 28 28 28 29 29 30
6 6 6 6 6 7 7 8 8 9 9 10 11 11 12 12 13 13 13 13 12 12 11 10 9 9 10 11 11 11 11 11 10 10 10 10 10 10 10 12 14 18 23 25 25 25 25 24 23 23 22 21 21 22 25 26 27 27 27 28 29 30 30
7 7 7 6 6 6 7 8 9 9 10 10 10 10 10 11 11 11 12 12 12 12 11 10 10 10 11 11 12 13 13 11 9 9 9 9 8 7 8 10 14 19 23 24 24 24 24 24 23 22 21 21 22 24 26 27 28 28 29 30 30 31 32
8 8 7 7 6 7 8 9 10 11 10 10 10 10 10 11 12 13 13 13 12 11 11 10 10 10 11 12 13 13 12 11 10 10 9 8 6 6 7 10 15 20 22 23 23 23 23 22 22 21 22 23 24 25 26 27 28 29 30 30 31 32 33
9 9 9 8 8 9 9 10 11 12 12 12 12 13 14 14 16 16 16 16 14 13 11 10 10 10 10 11 12 12 12 11 11 10 8 7 6 7 9 11 15 19 21 22 22 22 22 22 22 23 24 24 25 25 26 28 29 30 30 31 31 31 31
10 10 10 10 10 11 11 12 13 14 15 15 15 15 16 16 16 16 16 17 17 15 13 12 11 10 10 10 10 10 10 10 9 8 8 7 7 9 11 13 14 16 18 20 21 22 22 22 22 23 24 24 25 27 28 29 30 30 30 30 30 30 30
9 9 10 11 12 13 14 14 15 15 16 16 16 16 16 16 17 18 19 19 18 16 14 13 12 12 11 10 9 9 9 9 9 8 8 8 9 11 13 14 15 16 17 18 20 21 21 21 22 23 24 25 26 28 28 28 28 29 29 29 30 30 30
11 10 10 11 12 13 14 14 14 14 14 15 15 16 16 18 19 20 20 17 15 14 14 13 13 13 12 10 9 9 10 11 10 10 10 11 12 12 13 14 15 16 17 18 20 21 21 23 24 24 25 26 26 27 27 27 27 28 29 29 30 31 31
13 13 13 13 13 14 14 14 15 16 16 17 18 19 19 20 19 18 15 12 11 12 12 12 13 13 12 11 10 10 10 11 11 11 12 13 14 14 15 16 16 17 18 20 20 21 22 23 24 24 24 25 25 26 26 27 28 28 29 30 31 31 31
15 15 15 15 15 16 17 18 18 18 19 20 20 20 19 18 16 14 13 12 12 12 13 13 13 12 12 12 11 10 11 13 14 14 14 14 15 16 17 18 18 18 19 19 20 21 22 22 23 23 23 23 24 25 26 27 28 28 29 30 30 31 30
17 17 16 16 17 18 19 20 19 19 20 21 20 19 17 16 14 14 15 15 14 14 14 14 14 13 13 12 12 13 15 17 17 16 16 16 16 16 17 17 17 17 17 18 19 20 20 20 20 21 21 22 23 24 25 26 27 28 28 29 29 30 29
Wind_Direction
210 209 207 210 214 212 207 201 199 203 209 220 231 238 237 237 254 280 275 230 238 278 295 289 281 269 219 148 104 102 103 87 89 91 121 174 191 201 200 204 218 229 233 232 215 200 182 154 151 157 161 153 82 91 204 222 227 235 247 261 260 243 238
211 208 203 202 204 201 199 199 202 213 223 231 236 235 230 236 266 297 326 153 205 313 337 315 284 251 185 163 105 116 114 80 90 85 77 97 117 149 179 201 223 234 234 236 231 223 212 180 162 148 139 137 128 125 152 194 221 237 246 269 277 259 253
206 199 200 202 200 197 196 191 193 204 216 227 227 216 216 230 252 63 90 107 114 90 71 68 70 79 105 110 89 113 114 80 116 116 94 108 109 108 129 160 206 238 233 241 244 238 228 209 183 156 145 142 134 127 143 185 213 239 249 271 282 270 268
205 194 197 199 196 196 193 185 184 189 194 198 192 176 167 156 126 106 101 103 100 91 79 75 74 72 73 73 71 74 70 63 78 87 93 124 129 113 99 82 39 22 12 28 34 15 215 208 183 165 156 147 136 120 100 15 334 248 234 241 295 313 306
206 196 196 194 189 190 188 181 177 177 177 171 160 147 139 130 115 104 101 99 91 84 78 76 75 72 68 65 63 59 55 54 57 62 67 85 104 87 50 23 8 1 351 0 4 353 334 300 242 219 208 187 161 126 82 53 72 100 128 112 77 47 24
208 198 194 185 180 181 180 174 164 161 162 158 149 141 136 131 120 114 109 103 100 94 85 80 77 78 73 67 64 59 55 52 50 52 49 45 40 31 25 18 10 11 9 3 3 359 354 344 303 275 245 218 199 165 137 114 105 109 112 103 85 72 59
207 198 188 178 173 171 167 160 151 149 149 147 142 138 136 131 125 122 118 114 112 106 96 89 84 82 79 74 71 67 65 62 54 50 45 39 35 28 24 20 16 20 23 23 23 20 25 35 37 19 4 200 185 166 152 135 128 125 113 101 91 80 72
206 196 185 176 173 165 161 159 155 151 148 146 144 139 134 128 123 119 118 117 110 104 100 94 87 83 79 76 74 72 72 73 70 64 58 53 52 51 45 36 40 48 49 48 51 56 61 64 66 56 54 147 158 154 147 134 131 131 115 103 92 79 68
204 195 185 180 177 168 163 165 162 157 154 151 148 143 137 132 127 122 120 119 115 110 106 100 92 86 82 80 78 76 74 76 79 77 70 66 65 65 65 64 64 66 67 66 66 73 79 83 85 82 89 127 151 156 152 135 117 109 109 118 107 66 40
201 196 190 186 182 174 171 173 171 168 165 160 155 150 145 142 138 133 127 123 122 120 118 114 105 93 87 84 81 79 78 81 84 84 80 76 75 72 72 77 76 72 73 72 67 64 69 78 82 82 89 98 122 153 158 144 118 93 90 125 149 19 337
200 200 198 195 192 185 181 182 182 180 176 171 168 162 159 157 151 151 153 149 140 132 132 131 121 110 103 97 89 79 78 84 90 94 93 88 87 85 81 84 83 75 74 74 71 63 61 69 71 72 76 76 83 106 124 129 117 86 72 69 44 315 303
203 202 204 203 203 197 193 193 191 188 184 182 180 174 172 171 169 175 184 196 210 202 180 162 146 148 167 179 186 185 122 127 115 113 114 108 102 101 99 98 90 86 86 81 73 69 69 74 71 67 67 62 62 67 70 77 71 50 47 47 30 4 348
204 203 207 209 210 205 201 201 200 198 197 197 196 192 191 190 192 201 205 212 226 235 236 229 218 215 224 233 234 245 251 243 246 235 171 149 143 135 127 122 111 105 107 101 85 76 74 76 70 61 56 52 50 47 43 43 43 39 32 22 13 358 345
204 200 204 209 214 211 207 206 205 206 213 223 237 242 247 252 251 255 254 251 252 253 254 255 257 257 256 256 256 262 268 264 260 258 245 230 218 207 194 186 194 192 155 137 112 82 64 57 51 39 29 26 27 26 20 11 11 20 21 6 357 348 338
206 202 202 206 214 216 212 210 209 210 216 229 242 252 267 274 269 271 272 272 275 276 274 272 270 277 287 288 283 280 284 285 279 272 261 252 246 242 241 242 244 255 257 253 269 351 17 8 2 0 357 355 356 358 359 355 349 342 339 343 342 337 333
207 205 203 206 217 220 217 219 220 220 222 226 232 243 257 260 259 264 267 266 267 272 281 283 279 281 288 295 298 299 301 301 300 297 284 269 264 264 266 266 265 264 264 270 284 301 312 321 324 324 326 333 340 343 344 343 340 334 329 330 333 330 328
203 203 203 211 221 220 220 226 229 233 235 233 235 247 254 248 246 251 258 265 267 269 277 280 277 278 281 284 289 294 300 301 299 301 302 290 282 286 292 291 287 282 274 271 272 280 293 305 313 316 322 331 335 337 338 336 334 332 327 326 328 329 327
201 202 206 216 220 217 219 226 230 236 239 237 240 252 257 251 246 243 245 254 261 260 266 271 270 271 275 276 276 277 280 284 285 286 287 285 281 283 290 295 300 302 299 290 274 264 271 285 303 318 328 336 338 337 335 331 327 326 325 324 324 325 325
203 206 215 224 224 219 220 225 230 232 234 239 244 251 255 253 250 246 243 250 258 256 257 263 265 265 266 268 270 269 268 269 272 273 274 276 276 276 279 278 278 287 301 308 294 273 266 270 289 309 319 325 329 328 327 326 324 320 317 318 320 321 321
208 212 219 225 227 225 225 229 233 231 234 241 246 250 256 258 256 251 248 256 265 262 257 259 261 261 261 261 263 265 266 265 266 266 267 269 269 268 270 269 269 270 274 283 288 280 269 267 277 288 296 304 313 319 323 326 327 324 317 314 315 317 318
216 221 227 232 234 236 237 239 237 232 235 244 250 252 255 258 259 255 253 260 266 262 258 257 259 261 263 261 261 264 267 266 265 264 263 264 266 265 264 263 264 266 266 267 272 272 262 257 262 268 273 285 301 314 322 325 328 329 324 318 315 316 317
228 235 242 243 241 242 242 241 238 235 239 250 257 257 255 256 258 257 256 259 260 258 259 261 263 267 268 266 266 270 273 272 270 267 262 261 264 265 263 261 261 263 266 268 269 269 263 259 261 266 271 281 295 311 319 321 323 326 325 321 317 315 316
210 217 226 229 232 238 238 235 234 234 239 248 254 256 258 258 256 255 257 259 259 258 261 263 265 267 268 267 268 270 272 271 269 266 263 261 262 263 263 262 261 262 264 266 265 263 262 262 266 270 273 281 294 306 313 316 320 323 322 319 318 317 316
177 179 184 190 198 208 211 210 211 217 232 248 255 265 275 272 265 263 263 263 262 261 261 266 273 274 271 270 269 267 266 265 262 260 259 259 261 262 262 262 260 259 259 260 259 257 256 259 264 268 271 278 290 300 306 312 317 320 319 316 316 316 316
186 190 199 205 206 205 205 205 207 217 235 248 256 264 272 275 273 270 266 260 257 261 271 284 295 298 292 279 274 274 272 268 265 262 260 260 261 261 261 261 260 257 254 253 253 252 254 257 260 264 268 274 284 294 301 309 313 314 314 312 312 312 312
204 210 218 221 225 226 223 221 221 226 235 242 250 257 262 266 270 271 270 266 261 262 270 282 296 307 312 300 289 289 286 279 273 269 267 267 265 264 262 261 261 257 249 244 243 246 250 253 257 262 266 271 282 292 300 307 309 308 307 307 308 310 311
213 222 231 236 246 254 257 259 260 260 261 264 268 272 275 277 276 276 275 273 270 268 268 273 286 300 311 314 310 305 301 295 287 279 276 272 269 269 267 262 260 254 244 238 237 240 244 248 254 261 266 273 285 295 299 301 302 302 302 303 305 308 309
218 230 239 247 257 264 268 271 273 274 275 276 278 280 280 281 280 279 278 277 276 274 271 272 281 294 303 309 311 311 310 306 296 285 278 273 270 270 266 260 252 244 238 237 237 240 244 249 256 263 268 277 290 297 298 298 299 300 301 303 304 306 306
225 233 239 246 254 261 269 276 279 281 280 281 284 286 286 287 288 290 290 287 282 278 275 275 280 288 296 301 305 309 311 308 299 287 277 271 268 266 263 254 243 234 233 236 239 243 249 255 260 265 273 284 292 296 297 298 299 300 301 302 303 304 304
228 230 233 241 250 258 270 282 290 292 291 290 292 294 295 299 303 305 306 304 299 290 281 278 280 286 291 294 298 302 305 305 302 296 288 281 276 271 261 248 239 235 235 239 243 248 254 261 267 274 281 288 291 294 296 296 297 297 298 299 301 301 302
222 227 234 242 249 258 268 277 283 286 287 288 290 292 294 297 300 302 303 304 305 303 296 291 289 288 290 292 293 296 298 301 303 303 299 291 281 270 257 247 243 243 244 247 252 258 264 269 275 280 283 288 292 295 295 294 293 294 295 296 297 297 298
230 236 243 249 257 264 268 271 274 277 280 282 285 288 291 295 297 299 302 303 302 301 300 301 300 296 294 293 291 290 293 296 297 296 293 283 269 260 255 252 254 256 260 264 265 267 270 274 279 284 288 291 293 293 292 291 292 292 293 294 295 296 297
245 249 255 261 267 269 269 272 274 277 281 285 288 292 295 297 300 304 306 305 301 297 296 298 300 299 298 293 285 283 289 291 284 278 278 275 267 260 256 256 260 264 270 274 274 274 276 281 287 290 290 289 289 289 290 292 293 294 295 296 298 299 300
252 258 267 274 273 270 270 273 276 280 285 287 290 293 295 297 300 302 304 304 299 294 294 296 296 296 294 288 275 272 281 287 283 275 273 273 269 264 259 257 259 263 268 273 276 279 283 287 289 288 287 287 289 291 292 293 294 296 298 300 301 302 302
251 261 275 278 270 265 267 273 278 284 287 289 291 293 294 296 297 297 299 302 299 294 292 291 290 289 287 283 275 268 270 277 278 275 271 268 265 263 263 264 266 269 273 275 276 278 281 283 284 285 287 289 290 291 293 295 297 299 300 300 301 303 305
257 266 273 270 263 263 270 277 282 285 288 290 293 295 295 295 294 292 296 300 298 294 290 285 283 282 278 276 272 271 277 283 282 275 270 268 267 265 265 267 269 271 273 273 274 275 277 280 282 285 286 287 289 292 294 297 299 299 300 301 303 305 307
261 265 265 262 261 266 271 274 277 282 286 289 292 291 291 291 290 291 295 296 292 290 287 282 277 272 270 271 272 279 291 294 286 273 268 269 268 266 264 263 265 268 268 269 270 273 276 279 281 284 287 290 293 296 297 298 299 300 301 303 304 305 307